DW9246 Weather Reports


Display with metric or nautical units.
time (UTC)temp
F
wind
direction
speed
MPH
gust
MPH
rain 1hr
in
rain 24hr
in
rain mn
in
humidity
%
barometer
mb
20210802165021 75 218 4.0 8.0 0.00 0.00 0.00 51 1016.7
20210802164021 76 208 4.0 9.0 0.00 0.00 0.00 50 1016.8
20210802163020 76 213 5.0 10.0 0.00 0.00 0.00 51 1016.7
20210802162020 76 211 6.0 11.0 0.00 0.00 0.00 52 1016.8
20210802161021 77 204 5.0 9.0 0.00 0.00 0.00 52 1016.7
20210802160021 76 217 6.0 10.0 0.00 0.00 0.00 53 1016.7
20210802155022 76 205 6.0 11.0 0.00 0.00 0.00 52 1016.8
20210802154020 75 191 5.0 10.0 0.00 0.00 0.00 52 1016.6
20210802153021 75 200 6.0 12.0 0.00 0.00 0.00 54 1016.7
20210802152020 76 194 5.0 10.0 0.00 0.00 0.00 53 1016.6
20210802151020 76 185 6.0 14.0 0.00 0.00 0.00 52 1016.6
20210802150020 76 215 4.0 11.0 0.00 0.00 0.00 54 1016.7
20210802145021 76 223 6.0 11.0 0.00 0.00 0.00 53 1016.9
20210802144020 75 210 6.0 14.0 0.00 0.00 0.00 56 1017.1
20210802143021 75 228 5.0 10.0 0.00 0.00 0.00 55 1016.9
20210802142020 75 230 5.0 8.0 0.00 0.00 0.00 55 1017.0
20210802141020 75 200 7.0 11.0 0.00 0.00 0.00 55 1017.2
20210802140020 76 208 7.0 14.0 0.00 0.00 0.00 53 1017.4
20210802135020 76 209 6.0 10.0 0.00 0.00 0.00 54 1017.3
20210802134020 76 211 5.0 12.0 0.00 0.00 0.00 53 1017.4
20210802133020 76 202 6.0 13.0 0.00 0.00 0.00 52 1017.4
20210802132021 75 191 8.0 14.0 0.00 0.00 0.00 55 1017.4
20210802131020 75 192 8.0 13.0 0.00 0.00 0.00 55 1017.5
20210802130021 76 186 8.0 15.0 0.00 0.00 0.00 53 1017.5
20210802125021 77 211 7.0 14.0 0.00 0.00 0.00 49 1017.6
20210802124020 77 177 7.0 14.0 0.00 0.00 0.00 49 1017.5
20210802123021 77 193 7.0 14.0 0.00 0.00 0.00 49 1017.5
20210802122021 76 207 8.0 15.0 0.00 0.00 0.00 52 1017.7
20210802121020 76 191 9.0 14.0 0.00 0.00 0.00 54 1017.8
20210802120021 76 185 9.0 16.0 0.00 0.00 0.00 55 1017.8
20210802115021 77 175 8.0 15.0 0.00 0.00 0.00 55 1017.9
20210802114022 76 175 10.0 15.0 0.00 0.00 0.00 55 1017.9
20210802113020 76 166 12.0 18.0 0.00 0.00 0.00 56 1017.8
20210802112021 76 170 11.0 19.0 0.00 0.00 0.00 56 1017.8
20210802111020 77 173 10.0 18.0 0.00 0.00 0.00 53 1017.8
20210802110020 77 178 9.0 16.0 0.00 0.00 0.00 55 1017.7
20210802105021 76 194 10.0 16.0 0.00 0.00 0.00 55 1017.6
20210802104021 77 181 10.0 18.0 0.00 0.00 0.00 54 1017.6
20210802103021 77 172 8.0 14.0 0.00 0.00 0.00 52 1017.6
20210802102021 77 161 7.0 12.0 0.00 0.00 0.00 47 1017.6
20210802101020 77 199 6.0 13.0 0.00 0.00 0.00 46 1017.6
20210802100021 77 182 5.0 9.0 0.00 0.00 0.00 48 1017.6
20210802095020 77 123 3.0 9.0 0.00 0.00 0.00 48 1017.6
20210802094019 77 163 2.0 7.0 0.00 0.00 0.00 51 1017.6
20210802093021 76 94 3.0 8.0 0.00 0.00 0.00 52 1017.6
20210802092019 76 131 2.0 5.0 0.00 0.00 0.00 51 1017.5
20210802091019 75 122 3.0 9.0 0.00 0.00 0.00 49 1017.5
20210802090020 75 170 3.0 7.0 0.00 0.00 0.00 54 1017.7
20210802085020 74 129 3.0 7.0 0.00 0.00 0.00 56 1017.8
20210802084019 74 139 3.0 8.0 0.00 0.00 0.00 58 1017.9
20210802083020 73 102 3.0 9.0 0.00 0.00 0.00 59 1017.8
20210802082020 72 90 3.0 7.0 0.00 0.00 0.00 60 1017.9
20210802081021 73 102 4.0 9.0 0.00 0.00 0.00 61 1018.0
20210802080020 72 95 4.0 8.0 0.00 0.00 0.00 61 1018.0
20210802075020 72 96 4.0 8.0 0.00 0.00 0.00 62 1018.1
20210802074019 72 113 4.0 8.0 0.00 0.00 0.00 62 1018.1
20210802073020 71 94 5.0 10.0 0.00 0.00 0.00 63 1018.1
20210802072020 71 93 5.0 9.0 0.00 0.00 0.00 63 1018.1
20210802071019 71 93 4.0 9.0 0.00 0.00 0.00 63 1018.0
20210802070020 70 95 6.0 10.0 0.00 0.00 0.00 64 1018.0
20210802065020 70 88 4.0 8.0 0.00 0.00 0.00 63 1017.8
20210802064020 71 89 3.0 8.0 0.00 0.00 0.00 64 1017.7
20210802063019 70 60 3.0 5.0 0.00 0.00 0.00 64 1017.7
20210802062020 69 46 2.0 4.0 0.00 0.00 0.00 65 1017.6
20210802061019 68 359 2.0 3.0 0.00 0.00 0.00 67 1017.7
20210802060020 67 356 2.0 3.0 0.00 0.00 0.00 68 1017.5
20210802055020 66 350 3.0 4.0 0.00 0.00 0.00 69 1017.3
20210802054019 64 345 4.0 5.0 0.00 0.00 0.00 69 1017.2
20210802053020 64 344 4.0 5.0 0.00 0.00 0.00 68 1017.3
20210802052019 64 344 4.0 5.0 0.00 0.00 0.00 67 1017.2
20210802051020 64 344 4.0 5.0 0.00 0.00 0.00 67 1017.2
20210802050020 63 343 4.0 5.0 0.00 0.00 0.00 66 1017.2
20210802045020 64 342 4.0 5.0 0.00 0.00 0.00 66 1017.0
20210802044021 64 342 3.0 5.0 0.00 0.00 0.00 66 1017.0
20210802043021 64 342 4.0 5.0 0.00 0.00 0.00 66 1016.9
20210802042019 63 340 4.0 5.0 0.00 0.00 0.00 66 1017.0
20210802041019 63 337 4.0 5.0 0.00 0.00 0.00 66 1016.9
20210802040020 64 345 4.0 5.0 0.00 0.00 0.00 65 1016.8
20210802035019 65 358 4.0 6.0 0.00 0.00 0.00 63 1016.7
20210802034020 66 24 4.0 7.0 0.00 0.00 0.00 62 1016.7
20210802033020 65 48 3.0 7.0 0.00 0.00 0.00 63 1016.6
20210802032019 64 36 3.0 5.0 0.00 0.00 0.00 63 1016.4
20210802031020 64 21 2.0 4.0 0.00 0.00 0.00 61 1016.3
20210802030020 64 357 2.0 4.0 0.00 0.00 0.00 61 1016.2
20210802025020 64 359 3.0 5.0 0.00 0.00 0.00 59 1016.1
20210802024019 64 350 4.0 6.0 0.00 0.00 0.00 60 1016.0
20210802023020 63 349 4.0 5.0 0.00 0.00 0.00 61 1016.1
20210802022020 63 347 5.0 6.0 0.00 0.00 0.00 63 1016.0
20210802021020 63 343 4.0 5.0 0.00 0.00 0.00 64 1016.2
20210802020019 63 342 4.0 5.0 0.00 0.00 0.00 64 1016.2
20210802015019 63 348 4.0 6.0 0.00 0.00 0.00 64 1016.3
20210802014019 64 345 4.0 5.0 0.00 0.00 0.00 64 1016.4
20210802013019 64 337 4.0 5.0 0.00 0.00 0.00 64 1016.4
20210802012019 64 341 3.0 6.0 0.00 0.00 0.00 65 1016.5
20210802011019 63 342 4.0 6.0 0.00 0.00 0.00 65 1016.5
20210802010020 63 344 4.0 5.0 0.00 0.00 0.00 64 1016.4
20210802005019 64 344 4.0 5.0 0.00 0.00 0.00 63 1016.4
20210802004019 64 355 3.0 5.0 0.00 0.00 0.00 63 1016.5
20210802003020 64 347 3.0 5.0 0.00 0.00 0.00 62 1016.5
20210802002020 64 347 3.0 4.0 0.00 0.00 0.00 62 1016.4
20210802001020 64 356 3.0 4.0 0.00 0.00 0.00 62 1016.4
20210802000021 65 356 2.0 4.0 0.00 0.00 0.00 61 1016.3
20210801235020 65 337 3.0 5.0 0.00 0.00 0.00 62 1016.3
20210801234020 66 337 3.0 5.0 0.00 0.00 0.00 62 1016.3
20210801233019 65 336 4.0 7.0 0.00 0.00 0.00 63 1016.3
20210801232019 65 336 5.0 8.0 0.00 0.00 0.00 64 1016.3
20210801231020 65 332 5.0 8.0 0.00 0.00 0.00 64 1016.5
20210801230020 65 329 4.0 8.0 0.00 0.00 0.00 65 1016.6
20210801225019 65 337 4.0 6.0 0.00 0.00 0.00 65 1016.6
20210801224019 65 333 4.0 8.0 0.00 0.00 0.00 65 1016.6
20210801223019 65 333 4.0 7.0 0.00 0.00 0.00 65 1016.7
20210801222020 65 336 3.0 5.0 0.00 0.00 0.00 65 1016.7
20210801221019 65 334 3.0 4.0 0.00 0.00 0.00 64 1016.9
20210801220019 66 333 3.0 5.0 0.00 0.00 0.00 63 1016.9
20210801215020 66 340 4.0 5.0 0.00 0.00 0.00 63 1016.9
20210801214020 66 347 3.0 5.0 0.00 0.00 0.00 63 1016.8
20210801213019 66 347 3.0 5.0 0.00 0.00 0.00 62 1016.7
20210801212019 66 357 3.0 5.0 0.00 0.00 0.00 62 1016.7
20210801211019 67 6 3.0 5.0 0.00 0.00 0.00 61 1016.7
20210801210020 67 28 2.0 4.0 0.00 0.00 0.00 61 1016.7
20210801205019 68 43 2.0 4.0 0.00 0.00 0.00 60 1016.5
20210801204020 68 41 2.0 5.0 0.00 0.00 0.00 60 1016.4
20210801203019 68 21 1.0 3.0 0.00 0.00 0.00 61 1016.3
20210801202019 67 348 1.0 3.0 0.00 0.00 0.00 61 1016.1
20210801201019 67 339 2.0 5.0 0.00 0.00 0.00 62 1015.8
20210801200019 67 333 3.0 6.0 0.00 0.00 0.00 61 1015.6
20210801195019 68 332 3.0 7.0 0.00 0.00 0.00 61 1015.5
20210801194019 68 329 2.0 5.0 0.00 0.00 0.00 60 1015.5
20210801193019 69 329 3.0 5.0 0.00 0.00 0.00 59 1015.4
20210801192019 70 325 2.0 4.0 0.00 0.00 0.00 58 1015.4
20210801191019 70 280 2.0 4.0 0.00 0.00 0.00 57 1015.4
20210801190019 71 270 4.0 9.0 0.00 0.00 0.00 56 1015.5
20210801185021 71 249 5.0 11.0 0.00 0.01 0.00 56 1015.5
20210801184019 71 264 6.0 11.0 0.00 0.01 0.00 55 1015.4
20210801183019 71 251 8.0 14.0 0.00 0.01 0.00 55 1015.5
20210801182019 72 245 8.0 13.0 0.00 0.06 0.00 54 1015.5
20210801181019 72 240 7.0 13.0 0.00 0.17 0.00 53 1015.5
20210801180020 72 237 8.0 14.0 0.00 0.27 0.00 53 1015.5
20210801175019 72 238 8.0 13.0 0.00 0.27 0.00 52 1015.4
20210801174020 73 251 7.0 14.0 0.00 0.28 0.00 51 1015.4
20210801173020 73 225 8.0 14.0 0.00 0.28 0.00 50 1015.5
20210801172019 73 232 9.0 17.0 0.00 0.28 0.00 50 1015.5
20210801171019 73 228 9.0 18.0 0.00 0.28 0.00 49 1015.3
20210801170020 74 214 8.0 17.0 0.00 0.28 0.00 48 1015.2